Weather History for Pittsfield, IL

Change the Weather History Date:

Saturday, September 1, 2012

  Actual Average (KUIN) Record (KUIN)
Temperature  
Mean Temperature 80 °F 72 °F  
Max Temperature 83 °F 82 °F 104 °F (2011)
Min Temperature 77 °F 62 °F 41 °F (1949)
Degree Days  
Heating Degree Days 0 0  
Month to date heating degree days 0  
Since 1 July heating degree days 5  
Cooling Degree Days 15 7  
Month to date cooling degree days 7  
Year to date cooling degree days 960  
Growing Degree Days 30 (Base 50)    
Moisture  
Dew Point 74 °F    
Average Humidity 81    
Maximum Humidity 89    
Minimum Humidity 73    
Precipitation  
Precipitation 0.78 in 0.11 in 1.97 in (1931)
Month to date precipitation 0.11  
Year to date precipitation 25.86  
Sea Level Pressure  
Sea Level Pressure 29.84 in    
Wind  
Wind Speed 7 mph (ESE)    
Max Wind Speed 15 mph    
Max Gust Speed 24 mph    
Visibility 8 miles    
Events Rain    
T = Trace of Precipitation, MM = Missing Value Source: NWS Daily Summary

Daily Weather History Graph

Daily Weather History Graph

Search for Another Location

Airport:

Trip Planner

Search our weather history database for the weather conditions in past years. The results will help you decide how hot, cold, wet, or windy it might be!

Date:

Astronomy

Sep. 01, 2012 Rise Set
Actual Time 6:31 AM CDT 7:33 PM CDT
Civil Twilight 6:04 AM CDT 8:00 PM CDT
Nautical Twilight 5:31 AM CDT 8:33 PM CDT
Astronomical Twilight 4:57 AM CDT 9:07 PM CDT
Moon 7:50 PM CDT (9/1) 7:39 AM CDT (9/1)
Length of Visible Light 13h 56m
Length of Day
13h 01m
Full, 99% of the Moon is Illuminated
Sep 1
Full
Sep 8
Last Quarter
Sep 15
New
Sep 22
First Quarter
Sep 29
Full

Hourly Weather History & Observations

Time (CDT) Temp. Heat Index Dew Point Humidity Pressure Visibility Wind Dir Wind Speed Gust Speed Precip Events Conditions
12:15 AM 79.3 °F - 74.3 °F 84% 29.90 in 5.0 mi East 11.5 mph 18.4 mph 0.06 in Rain Light Rain
12:35 AM 79.3 °F - 74.3 °F 84% 29.89 in 4.0 mi ENE 11.5 mph 17.3 mph 0.17 in Rain Rain
12:55 AM 78.8 °F - 75.2 °F 89% 29.88 in 5.0 mi East 15.0 mph 24.2 mph N/A Rain Light Rain
1:15 AM 79.3 °F - 73.9 °F 83% 29.88 in 7.0 mi ESE 9.2 mph 23.0 mph 0.03 in Rain Rain
1:35 AM 79.3 °F - 73.9 °F 83% 29.87 in 5.0 mi East 8.1 mph - 0.07 in Rain Rain
1:55 AM 79.3 °F - 73.9 °F 83% 29.87 in 7.0 mi East 9.2 mph - 0.12 in Rain Rain
2:15 AM 79.7 °F - 73.9 °F 82% 29.86 in 10.0 mi East 8.1 mph 16.1 mph N/A   Light Drizzle
2:35 AM 79.5 °F - 73.9 °F 83% 29.85 in 5.0 mi East 6.9 mph - 0.07 in Rain Heavy Rain
2:55 AM 79.3 °F - 74.3 °F 84% 29.84 in 7.0 mi East 9.2 mph 16.1 mph 0.13 in Rain Light Rain
3:15 AM 79.3 °F - 74.3 °F 84% 29.84 in 4.0 mi ENE 10.4 mph 16.1 mph 0.08 in Rain Heavy Rain
3:35 AM 79.2 °F - 74.1 °F 84% 29.83 in 5.0 mi ENE 8.1 mph - 0.20 in Rain Light Rain
3:55 AM 79.7 °F - 74.5 °F 84% 29.84 in 10.0 mi SE 6.9 mph - 0.21 in   Overcast
4:15 AM 79.7 °F - 74.3 °F 83% 29.84 in 10.0 mi SE 5.8 mph - N/A   Overcast
4:35 AM 79.7 °F - 74.3 °F 83% 29.83 in 10.0 mi SE 6.9 mph - N/A   Overcast
4:55 AM 80.6 °F 86.2 °F 75.2 °F 84% 29.83 in 10.0 mi SE 6.9 mph - N/A   Overcast
5:15 AM 79.7 °F - 74.3 °F 83% 29.84 in 10.0 mi SE 6.9 mph - N/A   Overcast
5:35 AM 79.7 °F - 73.8 °F 82% 29.83 in 7.0 mi SSE 9.2 mph - N/A Rain Rain
5:55 AM 79.3 °F - 73.9 °F 83% 29.84 in 4.0 mi SE 4.6 mph - N/A   Drizzle
6:15 AM 79.0 °F - 73.8 °F 84% 29.84 in 4.0 mi SE 4.6 mph - 0.02 in Rain Heavy Rain
6:35 AM 78.8 °F - 73.4 °F 83% 29.85 in 5.0 mi South 6.9 mph - 0.04 in Rain Heavy Rain
6:55 AM 77.5 °F - 72.0 °F 83% 29.86 in 5.0 mi South 6.9 mph - 0.09 in Rain Rain
7:15 AM 77.5 °F - 72.1 °F 83% 29.86 in 1.8 mi SSE 5.8 mph - 0.08 in Rain Heavy Rain
7:35 AM 78.1 °F - 72.7 °F 83% 29.86 in 10.0 mi ESE 6.9 mph 17.3 mph 0.13 in   Overcast
7:55 AM 78.8 °F - 73.6 °F 84% 29.86 in 5.0 mi SSE 11.5 mph 16.1 mph 0.14 in   Light Drizzle
8:15 AM 79.2 °F - 73.6 °F 83% 29.87 in 7.0 mi ESE 6.9 mph - N/A   Overcast
8:35 AM 78.8 °F - 73.2 °F 83% 29.87 in 5.0 mi SSE 8.1 mph - N/A   Light Drizzle
8:55 AM 77.9 °F - 72.0 °F 82% 29.87 in 4.0 mi SSE 5.8 mph - N/A   Drizzle
9:15 AM 77.9 °F - 72.5 °F 83% 29.88 in 4.0 mi SSE 6.9 mph - N/A   Drizzle
9:35 AM 78.8 °F - 73.0 °F 82% 29.87 in 7.0 mi SE 5.8 mph - 0.01 in   Mostly Cloudy
9:55 AM 78.8 °F - 73.4 °F 83% 29.88 in 5.0 mi SE 8.1 mph - N/A Rain Light Rain
10:15 AM 79.7 °F - 73.6 °F 81% 29.88 in 10.0 mi ESE 4.6 mph - N/A   Overcast
10:35 AM 81.0 °F 86.2 °F 73.8 °F 79% 29.88 in 10.0 mi SE 6.9 mph - N/A   Overcast
10:55 AM 81.5 °F 86.9 °F 73.6 °F 77% 29.87 in 10.0 mi SE 4.6 mph - N/A   Overcast
11:15 AM 83.3 °F 90.2 °F 74.1 °F 74% 29.87 in 10.0 mi SE 5.8 mph - N/A   Overcast
11:35 AM 82.4 °F 88.2 °F 73.4 °F 74% 29.86 in 7.0 mi ESE 5.8 mph - N/A   Overcast
11:55 AM 81.0 °F 86.3 °F 74.3 °F 80% 29.87 in 5.0 mi East 3.5 mph - N/A   Drizzle
12:15 PM 81.1 °F 86.8 °F 74.3 °F 80% 29.86 in 10.0 mi ENE 3.5 mph - N/A   Overcast
12:35 PM 79.3 °F - 73.0 °F 81% 29.86 in 4.0 mi ESE 5.8 mph - 0.02 in Rain Rain
12:55 PM 78.8 °F - 73.0 °F 82% 29.85 in 3.0 mi SSE 3.5 mph - 0.05 in Rain Rain
1:15 PM 79.0 °F - 73.4 °F 83% 29.85 in 3.0 mi Calm Calm - 0.03 in Rain Light Rain
1:35 PM 80.2 °F 84.7 °F 73.6 °F 80% 29.84 in 10.0 mi Calm Calm - 0.03 in   Overcast
1:55 PM 82.8 °F 89.5 °F 74.5 °F 76% 29.83 in 10.0 mi ESE 3.5 mph - 0.03 in   Mostly Cloudy
2:15 PM 82.8 °F 89.2 °F 73.9 °F 75% 29.83 in 10.0 mi East 3.5 mph - N/A   Overcast
2:35 PM 83.3 °F 90.2 °F 74.3 °F 74% 29.82 in 10.0 mi Calm Calm - N/A   Overcast
2:55 PM 81.9 °F 87.3 °F 73.4 °F 75% 29.82 in 10.0 mi Calm Calm - N/A   Overcast
3:15 PM 79.9 °F - 72.1 °F 77% 29.81 in 5.0 mi SSW 3.5 mph - N/A Rain Rain
3:35 PM 80.4 °F 84.7 °F 72.7 °F 77% 29.81 in 10.0 mi Calm Calm - N/A   Overcast
3:55 PM 82.4 °F 88.2 °F 73.4 °F 74% 29.81 in 10.0 mi Calm Calm - N/A   Overcast
4:15 PM 82.9 °F 89.1 °F 73.4 °F 73% 29.80 in 10.0 mi Calm Calm - N/A   Overcast
4:35 PM 83.1 °F 89.8 °F 74.1 °F 74% 29.80 in 10.0 mi Calm Calm - N/A   Overcast
4:55 PM 82.8 °F 89.0 °F 73.8 °F 74% 29.80 in 10.0 mi Calm Calm - N/A   Overcast
5:15 PM 82.4 °F 88.4 °F 73.8 °F 75% 29.80 in 10.0 mi East 4.6 mph - N/A   Overcast
5:35 PM 81.9 °F 87.3 °F 73.4 °F 75% 29.80 in 10.0 mi Calm Calm - N/A   Overcast
5:55 PM 82.4 °F 88.4 °F 73.8 °F 75% 29.80 in 10.0 mi East 3.5 mph - N/A   Overcast
6:15 PM 82.6 °F 88.6 °F 73.4 °F 74% 29.80 in 10.0 mi Calm Calm - N/A   Overcast
6:35 PM 82.6 °F 88.6 °F 73.4 °F 74% 29.80 in 10.0 mi ENE 4.6 mph - N/A   Mostly Cloudy
6:55 PM 82.2 °F 87.8 °F 73.0 °F 74% 29.80 in 10.0 mi ENE 3.5 mph - N/A   Scattered Clouds
7:15 PM 81.5 °F 86.3 °F 72.5 °F 74% 29.80 in 10.0 mi Calm Calm - N/A   Scattered Clouds
7:35 PM 81.0 °F 85.6 °F 72.9 °F 76% 29.80 in 10.0 mi Calm Calm - N/A   Overcast
7:55 PM 80.6 °F 85.4 °F 73.4 °F 79% 29.80 in 7.0 mi Calm Calm - N/A Rain Rain
8:15 PM 80.2 °F 85.0 °F 74.1 °F 82% 29.80 in 10.0 mi NE 3.5 mph - N/A   Overcast
8:35 PM 80.1 °F 84.6 °F 74.3 °F 82% 29.81 in 10.0 mi Calm Calm - N/A   Overcast
8:55 PM 80.6 °F 86.2 °F 75.2 °F 84% 29.82 in 10.0 mi ENE 3.5 mph - N/A   Overcast
9:15 PM 79.7 °F - 73.9 °F 82% 29.82 in 10.0 mi ENE 3.5 mph - N/A   Overcast
9:35 PM 79.7 °F - 74.3 °F 83% 29.83 in 7.0 mi Calm Calm - N/A   Overcast
9:55 PM 79.3 °F - 73.9 °F 83% 29.82 in 7.0 mi NE 3.5 mph - N/A   Overcast
10:15 PM 79.2 °F - 73.9 °F 84% 29.83 in 5.0 mi NE 3.5 mph - N/A   Haze
10:35 PM 79.2 °F - 73.9 °F 84% 29.83 in 5.0 mi Calm Calm - N/A   Haze
10:55 PM 78.8 °F - 75.2 °F 89% 29.83 in 5.0 mi Calm Calm - N/A   Haze
11:15 PM 79.5 °F - 74.3 °F 84% 29.83 in 4.0 mi NE 3.5 mph - N/A Rain Rain
11:35 PM 79.5 °F - 74.3 °F 84% 29.83 in 5.0 mi NE 3.5 mph - N/A   Haze
11:55 PM 79.5 °F - 74.1 °F 83% 29.83 in 7.0 mi NNE 3.5 mph - N/A   Overcast